Simultaneous Nadir Overpasses (SNOs) Predictions

Prediction of SNOs between NPP and TERRA Satellite Orbit:

Table of predicted SNOs for the next 14.0 days since TLE Epoch: 12/28/2013
Index Date (NPP) Time (NPP) Lat,Lon (NPP) SZA (NPP ) Date (TERRA) Time (TERRA) Lat,Lon (TERRA) SZA (TERRA ) Distance(km) Time Diff (sec)
1 12/28/2013 09:00:19 -68.98,-136.83 87.86 12/28/2013 09:01:30 -68.90,-136.07 87.95 31.65 71
2 12/28/2013 09:50:57 68.51, 31.11 91.67 12/28/2013 09:51:02 68.52, 31.10 91.67 0.50 5
3 12/28/2013 10:41:38 -68.39,-161.42 88.46 12/28/2013 10:40:32 -68.41,-161.40 88.45 1.48 66
4 12/31/2013 01:17:11 -68.62, -20.57 88.39 12/31/2013 01:18:05 -68.60, -20.57 88.42 2.69 54
5 12/31/2013 02:07:55 68.48, 146.93 91.46 12/31/2013 02:07:32 68.49, 146.94 91.47 1.23 23
6 12/31/2013 02:58:23 -67.66, -44.71 89.38 12/31/2013 02:57:14 -67.71, -46.35 89.30 69.19 69
7 01/02/2014 16:43:44 69.56, -73.43 92.36 01/02/2014 16:44:51 69.43, -71.26 92.19 85.76 67
8 01/02/2014 17:34:09 -68.58, 95.25 88.65 01/02/2014 17:34:34 -68.60, 95.31 88.63 3.17 25
9 01/02/2014 18:24:53 68.44, -97.26 91.21 01/02/2014 18:24:02 68.43, -97.25 91.20 1.07 51
10 01/05/2014 09:00:25 68.62, 43.65 91.13 01/05/2014 09:01:34 68.63, 43.59 91.13 2.40 69
11 01/05/2014 09:51:07 -68.55,-148.94 88.96 01/05/2014 09:51:04 -68.53,-148.90 88.98 2.93 3
12 01/05/2014 10:41:47 68.19, 18.83 90.68 01/05/2014 10:40:34 68.24, 18.40 90.74 18.71 73
13 01/08/2014 01:17:22 68.59, 159.45
